Regional Weather Roundup
Issued by NWS

Home | Current Version | Previous Version | Text Only | Print | Product List | Glossary On
Versions: 1 2 3 4 5 6 7 8 9 10 11 12 13 14 15 16 17 18 19 20 21 22 23 24 25 26 27 28 29 30 31 32 33 34 35 36 37 38 39 40 41 42 43 44 45 46 47 48
000
ASUS43 KDMX 150207
RWRIA

WEATHER ROUNDUP FOR IOWA
NATIONAL WEATHER SERVICE DES MOINES IA
900 PM CDT SUN SEP 14 2014

NOTE: "FAIR" INDICATES FEW OR NO CLOUDS BELOW 12,000 FEET WITH NO
SIGNIFICANT WEATHER AND/OR OBSTRUCTIONS TO VISIBILITY.

* - THESE STATIONS ARE NOT NWS STATIONS...THUS NOT UNDER NWS
QUALITY CONTROL.  THEY ALSO DO NOT REPORT WEATHER SUCH
AS PRECIPITATION OR FOG.

IAZ001>003-012>014-020>022-031>034-043>046-150300-
   NORTHWEST IOWA

CITY           SKY/WX    TMP DP  RH WIND       PRES   REMARKS
CARROLL *      CLOUDY    59  57  94 CALM      30.12R
CHEROKEE *     CLOUDY    57  56  94 CALM      30.12R
DENISON *      CLOUDY    61  57  88 CALM      30.10R
LE MARS *      PTCLDY    55  54  94 CALM      30.11S
ORANGE CITY *  MOCLDY    63  52  67 CALM      30.12S
SHELDON *      CLOUDY    55  52  88 NE6       30.12R
SIOUX CITY     PTCLDY    58  53  84 E3        30.11R
SPENCER        PTCLDY    52  49  89 SE5       30.13R
STORM LAKE *   CLOUDY    59  55  88 CALM      30.13R
$$

IAZ055>058-069>071-079>083-090>094-150300-
   SOUTHWEST IOWA

CITY           SKY/WX    TMP DP  RH WIND       PRES   REMARKS
ATLANTIC *     CLOUDY    57  54  88 CALM      30.11R
AUDUBON *      CLOUDY    63  57  82 CALM      30.13R
CLARINDA *     CLOUDY    63  57  82 CALM      30.12R
COUNCIL BLFS * CLOUDY    63  55  77 E5        30.09R
CRESTON *      CLOUDY    59  54  82 E3        30.13R
HARLAN  *      CLOUDY    59  57  94 CALM      30.14R
LAMONI         CLOUDY    61  50  67 SE3       30.12S
SHENANDOAH *     N/A     64  57  77 SE5       30.10R
$$

IAZ047>049-059>061-072>074-084-150300-
   CENTRAL IOWA

CITY           SKY/WX    TMP DP  RH WIND       PRES   REMARKS
AMES           MOCLDY    55  53  93 CALM      30.13R
ANKENY *       CLOUDY    61  55  82 CALM      30.13R
CHARITON *     CLOUDY    59  54  82 SE5       30.13S
DES MOINES     MOCLDY    65  51  60 SE6       30.13R
GRINNELL*      MOCLDY    56  51  82 SE5       30.15R
KNOXVILLE *    CLOUDY    61  52  72 SE6       30.13R
MARSHALLTOWN   PTCLDY    56  50  80 SE5       30.13R
PELLA *        MOCLDY    59  53  80 SE5       30.15R
PERRY *        CLOUDY    61  56  83 CALM      30.13R
$$

IAZ004>006-015-016-023>025-035-036-150300-
   NORTH CENTRAL IOWA

CITY           SKY/WX    TMP DP  RH WIND       PRES   REMARKS
ALGONA *       MOCLDY    57  54  88 CALM      30.13R
CLARION *        N/A     55  52  88 S7        30.13R
ESTHERVILLE    MOCLDY    54  44  69 N10       30.13R
FORT DODGE *   MOCLDY    55  52  88 CALM      30.13R
MASON CITY     MOCLDY    52  51  97 CALM      30.14R
FOREST CITY *  MOCLDY    54  54 100 CALM      30.13R
IOWA FALLS *     N/A     56  49  78 S7        30.14R
$$

IAZ007>011-017>019-026>030-037>042-050>054-066-150300-
   NORTHEAST IOWA

CITY           SKY/WX    TMP DP  RH WIND       PRES   REMARKS
CEDAR RAPIDS   PTCLDY    55  50  83 S3        30.15R
CHARLES CITY * CLOUDY    57  54  88 CALM      30.14R
CLINTON *      CLEAR     54  45  71 S5        30.18S
DECORAH *      PTCLDY    57  50  77 CALM      30.13R
DUBUQUE        PTCLDY    52  48  86 CALM      30.16R
MONTICELLO *   PTCLDY    52  50  93 CALM      30.15R
OELWEIN *      MOCLDY    55  50  82 S6        30.15R
WATERLOO       PTCLDY    56  50  80 SW3       30.13R
$$

IAZ064-065-067-068-078-150300-
   EAST CENTRAL IOWA

CITY           SKY/WX    TMP DP  RH WIND       PRES   REMARKS
DAVENPORT      PTCLDY    54  46  74 S3        30.16S
IOWA CITY      MOCLDY    58  52  80 CALM      30.17R
MT. PLEASANT * MOCLDY    56  49  78 SE3       30.16R
MUSCATINE *    MOCLDY    57  52  82 CALM      30.17R
QUAD CITIES    PTCLDY    55  51  86 CALM      30.16S
$$

IAZ062-063-075>077-085>089-095>099-150300-
   SOUTHEAST IOWA

CITY           SKY/WX    TMP DP  RH WIND       PRES   REMARKS
BURLINGTON     PTCLDY    55  50  83 SE3       30.16R
FAIRFIELD *    CLOUDY    57  52  82 SE3       30.16R
FORT MADISON * PTCLDY    57  48  72 SE3       30.17R
KEOKUK *       CLEAR     55  52  88 SE5       30.15S
OSKALOOSA *      N/A     57  51  80 SE5       30.15R
CENTERVILLE *  CLOUDY    57  55  94 E3        30.16R
OTTUMWA        MOCLDY    57  51  80 SE5       30.15R
WASHINGTON *   CLOUDY    55  52  88 S5        30.16R
$$

ABBREVIATIONS USED IN REMARKS
   TC - TEMPERATURES IN CELSIUS
  WCI - WIND CHILL INDEX
   HX - HEAT INDEX
  VSB - VISIBILITY
$$




USA.gov is the U.S. government's official web portal to all federal, state and local government web resources and services.